Theta_e
312 317 319 326 330 332 329 328 330 333 333 337 337 339 339 337 336 337 337 335 334 330 326 326 326 324 317
305 312 313 319 326 328 329 328 329 329 331 332 331 336 338 336 337 338 337 334 332 329 325 325 324 322 316
304 307 308 314 319 324 326 325 326 329 329 328 327 331 336 335 336 336 334 333 330 326 324 323 321 317 317
302 302 304 311 315 319 324 325 326 327 328 326 322 324 331 331 333 333 331 329 322 319 318 318 316 317 317
298 300 301 304 310 316 319 323 325 328 326 326 326 325 326 323 330 329 325 321 318 315 314 314 315 316 316
298 299 300 302 306 312 316 320 320 324 324 323 326 327 325 328 326 323 320 320 318 316 315 313 314 314 315
298 298 299 300 303 309 314 318 319 319 323 322 323 329 329 329 324 321 320 319 318 316 316 315 313 313 313
297 297 299 300 302 309 312 316 317 318 321 322 322 326 327 327 324 320 318 318 319 318 317 316 314 314 313
296 297 297 299 302 306 312 313 315 316 319 319 321 325 326 327 324 320 320 320 319 319 318 317 316 315 314
295 296 296 297 300 305 309 311 312 313 316 317 321 323 326 325 324 321 320 320 319 318 317 317 316 315 314
295 295 295 296 298 305 308 310 309 311 312 314 315 323 326 324 324 321 320 321 319 317 317 316 316 316 316
294 294 294 295 298 302 307 306 307 308 309 312 314 320 323 323 322 322 319 320 319 317 316 315 316 316 316
292 291 291 291 294 299 304 305 304 306 308 310 313 319 322 322 321 321 319 316 315 316 313 312 314 315 315
293 292 291 291 294 299 303 303 304 305 307 309 313 319 321 322 321 320 318 316 314 316 311 310 308 311 309
293 293 292 293 298 301 299 300 302 304 306 308 310 321 322 323 320 319 318 317 313 313 314 312 305 305 306
292 291 289 289 292 296 296 299 301 304 305 307 311 322 322 323 321 319 319 318 315 313 311 312 308 307 304
Wind_Speed
16 16 17 17 13 5 6 6 5 8 5 10 14 17 22 22 18 15 14 13 13 12 9 5 9 11 6
8 13 17 17 16 11 1 4 6 3 5 8 10 17 20 22 20 17 14 14 12 12 8 9 10 10 6
7 8 13 15 16 11 9 3 1 4 3 3 6 7 13 19 18 17 17 13 11 9 9 10 8 3 4
7 7 6 8 8 7 5 5 3 2 3 3 6 6 11 11 18 17 15 12 9 4 3 7 3 4 3
5 4 4 3 5 5 8 5 4 1 2 2 1 2 4 7 6 8 8 4 5 4 4 4 4 4 3
4 3 4 4 4 4 6 6 5 2 2 1 1 2 4 6 8 7 4 5 3 5 6 5 5 4 2
5 3 3 3 4 6 5 4 3 4 3 6 3 3 4 6 8 8 7 4 2 4 6 5 5 4 4
5 5 4 3 5 4 4 4 5 5 4 5 5 4 4 4 9 9 8 7 4 1 4 4 5 5 4
6 5 4 4 5 4 3 4 5 6 5 5 6 4 5 6 9 8 8 7 4 2 2 2 3 5 4
5 5 4 4 4 4 3 3 5 6 7 5 3 7 6 4 10 9 8 8 8 5 4 3 3 3 4
5 5 5 5 3 3 3 3 5 6 6 5 5 5 8 6 7 10 8 7 7 6 5 5 3 3 3
4 5 3 3 3 4 3 3 6 4 6 6 6 7 6 7 7 7 11 7 6 7 6 4 3 2 2
2 3 3 3 4 3 3 4 6 6 6 7 7 9 7 8 10 10 9 9 3 4 4 3 3 3 4
2 2 2 3 3 4 4 4 4 6 7 8 9 10 11 7 10 10 11 7 3 5 4 3 2 2 5
3 3 3 3 3 2 4 4 5 8 7 9 11 12 11 11 9 11 10 11 6 3 4 4 2 2 3
5 4 4 3 3 2 4 5 7 8 10 10 13 13 12 9 10 10 8 8 5 9 2 1 3 4 3
Wind_Direction
348 348 349 341 335 330 203 186 251 289 299 255 204 189 162 149 156 155 151 145 126 112 93 94 118 116 113
333 345 347 338 339 322 284 153 195 208 258 271 218 206 165 159 157 153 144 142 129 118 105 108 117 113 124
329 351 345 337 333 329 303 314 162 106 63 355 292 217 189 159 156 144 138 135 120 125 123 117 113 118 123
340 335 334 335 329 328 299 276 286 132 110 360 332 249 173 171 155 143 144 130 126 141 114 116 123 132 125
336 334 329 328 328 328 327 342 260 327 137 190 356 325 164 169 152 116 115 115 135 145 123 126 133 131 133
325 327 324 323 332 317 315 346 295 322 198 151 321 228 194 158 141 125 121 117 121 140 118 133 134 132 160
321 319 324 324 313 307 305 310 299 300 253 186 209 191 174 157 150 132 121 128 195 238 117 142 141 155 161
327 325 317 315 297 297 306 312 310 281 279 190 182 192 189 164 152 137 163 161 161 57 142 139 149 158 169
324 317 320 308 307 284 280 311 300 297 292 293 202 186 236 152 132 141 164 142 145 164 156 177 177 153 164
323 310 308 303 295 284 304 295 303 305 299 289 276 205 178 160 138 152 167 165 168 175 191 203 184 162 176
315 307 306 300 283 297 291 307 306 306 302 283 277 237 174 163 148 154 164 177 169 176 187 197 191 167 182
322 313 314 320 348 295 281 304 311 294 288 271 262 247 197 174 152 160 165 178 178 177 182 162 103 111 103
347 336 331 321 312 288 300 305 302 292 288 261 259 245 207 191 174 176 156 171 161 147 109 81 83 72 71
334 309 286 297 294 281 291 300 299 294 286 273 258 231 196 189 171 175 170 154 129 165 135 118 147 110 60
350 322 335 299 273 282 322 320 313 309 294 281 268 211 185 179 172 172 176 168 148 190 168 134 135 180 124
356 1 26 317 319 309 304 304 319 313 307 290 256 199 176 172 166 169 172 173 160 173 112 79 69 145 148